Starlink 11635

operational
NORAD ID: 63193 Int'l Des: 2025-048 Owner: SPXS Country: US Constellation: starlink
LEOCIRCULAR

Über Starlink 11635

Beschreibung wird geladen...

Live-Position

3D-Globus wird geladen...

Nächste Überflüge

Höhenverlauf

Altitude vs Time

uPlot chart will show altitude changes over time

Zweizeiliger Elementsatz

1 63193U 25048L 25303.65761579 .00099480 00000-0 76815-3 0 9990
2 63193 42.9986 23.4039 0001706 296.6534 63.4159 15.70882004 38073
Epoch: 30. Okt. 2025 • Age: 19 hours

Aktueller Status

Höhe 359.1 km
Geschwindigkeit 7.70 km/s
Subsatellitenpunkt 39.98°N, 113.7°W
Startdatum 13. März 2025
Alter 0.6 years
Typ internet

Technische Details

Klassifizierung Payload
Masse 960.00 kg
Trockenmasse 910.00 kg
Gesamtmasse 960.00 kg
Länge 0.30 m
Durchmesser 4.10 m
Spannweite 29.00 m
Form Box + pan
Hersteller SPXS
Bus-Typ Starlink V2MD
Phasenstatus In Orbit
Besitzer/Staat SPXS/US

Große Konstellationen

Loading constellations...